EN

Hourly Weather Olszyn

Today, 14 May, Friday

Time Temperature Precipitation Wind Pressure Humidity
00:00 +12°C° 0.2 mm 2 mps 738 mmHg 95%
01:00 +12°C° 0.2 mm 2 mps 737 mmHg 96%
02:00 +12°C° 0.2 mm 2 mps 737 mmHg 97%
03:00 +12°C° 0.3 mm 2 mps 737 mmHg 97%
04:00 +12°C° 0.3 mm 2 mps 737 mmHg 97%
05:00 +12°C° 0.3 mm 2 mps 737 mmHg 97%
06:00 +11°C° 0.1 mm 3 mps 737 mmHg 94%
07:00 +12°C° 0.1 mm 3 mps 737 mmHg 90%
08:00 +13°C° 0.1 mm 4 mps 738 mmHg 87%
09:00 +14°C° 0 mm 4 mps 738 mmHg 83%
10:00 +15°C° 0 mm 4 mps 738 mmHg 79%
11:00 +17°C° 0 mm 4 mps 738 mmHg 74%
12:00 +17°C° 0.2 mm 4 mps 738 mmHg 72%
13:00 +18°C° 0.2 mm 4 mps 738 mmHg 69%
14:00 +18°C° 0.2 mm 4 mps 738 mmHg 67%
15:00 +18°C° 0.3 mm 3 mps 738 mmHg 69%
16:00 +18°C° 0.3 mm 3 mps 739 mmHg 71%
17:00 +18°C° 0.3 mm 2 mps 739 mmHg 74%
18:00 +17°C° 0.3 mm 2 mps 739 mmHg 78%
19:00 +16°C° 0.3 mm 2 mps 739 mmHg 83%
20:00 +15°C° 0.3 mm 2 mps 739 mmHg 87%
21:00 +14°C° 0 mm 2 mps 739 mmHg 90%
22:00 +13°C° 0 mm 2 mps 740 mmHg 92%
23:00 +13°C° 0 mm 2 mps 740 mmHg 94%

Tomorrow, 15 May, Saturday

Time Temperature Precipitation Wind Pressure Humidity
00:00 +12°C° 0 mm 2 mps 740 mmHg 95%
01:00 +12°C° 0 mm 2 mps 740 mmHg 96%
02:00 +12°C° 0 mm 2 mps 740 mmHg 97%
03:00 +11°C° 0 mm 3 mps 741 mmHg 96%
04:00 +11°C° 0 mm 4 mps 741 mmHg 96%
05:00 +11°C° 0 mm 4 mps 741 mmHg 95%
06:00 +11°C° 0 mm 4 mps 742 mmHg 94%
07:00 +11°C° 0 mm 4 mps 742 mmHg 93%
08:00 +12°C° 0 mm 4 mps 742 mmHg 91%
09:00 +12°C° 0 mm 4 mps 743 mmHg 88%
10:00 +13°C° 0 mm 4 mps 743 mmHg 85%
11:00 +14°C° 0 mm 4 mps 743 mmHg 81%
12:00 +14°C° 0 mm 4 mps 743 mmHg 79%
13:00 +14°C° 0 mm 4 mps 743 mmHg 77%
14:00 +15°C° 0 mm 4 mps 743 mmHg 75%
15:00 +16°C° 0 mm 3 mps 743 mmHg 74%
16:00 +16°C° 0 mm 3 mps 743 mmHg 73%
17:00 +16°C° 0 mm 2 mps 743 mmHg 72%
18:00 +15°C° 0 mm 2 mps 743 mmHg 76%
19:00 +15°C° 0 mm 2 mps 743 mmHg 80%
20:00 +14°C° 0 mm 1 mps 743 mmHg 83%
21:00 +13°C° 0 mm 1 mps 743 mmHg 85%
22:00 +13°C° 0 mm 1 mps 743 mmHg 86%
23:00 +12°C° 0 mm 1 mps 743 mmHg 87%

Day after tomorrow, 16 May, Sunday

Time Temperature Precipitation Wind Pressure Humidity
00:00 +11°C° 0 mm 1 mps 743 mmHg 89%
01:00 +11°C° 0 mm 1 mps 743 mmHg 90%
02:00 +9°C° 0 mm 2 mps 744 mmHg 91%
03:00 +9°C° 0 mm 2 mps 743 mmHg 92%
04:00 +9°C° 0 mm 2 mps 743 mmHg 92%
05:00 +9°C° 0 mm 2 mps 743 mmHg 93%
06:00 +11°C° 0 mm 3 mps 743 mmHg 87%
07:00 +12°C° 0 mm 4 mps 743 mmHg 82%
08:00 +14°C° 0 mm 4 mps 743 mmHg 76%
09:00 +16°C° 0 mm 5 mps 743 mmHg 72%
10:00 +17°C° 0 mm 5 mps 743 mmHg 67%
11:00 +20°C° 0 mm 6 mps 742 mmHg 62%
12:00 +20°C° 0.1 mm 6 mps 742 mmHg 59%
13:00 +21°C° 0.1 mm 5 mps 742 mmHg 56%
14:00 +21°C° 0.1 mm 5 mps 741 mmHg 53%
15:00 +21°C° 0.3 mm 5 mps 741 mmHg 59%
16:00 +20°C° 0.3 mm 4 mps 741 mmHg 65%
17:00 +19°C° 0.3 mm 4 mps 741 mmHg 71%
18:00 +18°C° 0.5 mm 3 mps 741 mmHg 78%
19:00 +16°C° 0.5 mm 2 mps 741 mmHg 85%
20:00 +15°C° 0.5 mm 2 mps 741 mmHg 92%
21:00 +14°C° 0.3 mm 1 mps 741 mmHg 93%
22:00 +14°C° 0.3 mm 1 mps 741 mmHg 94%
23:00 +13°C° 0.3 mm 1 mps 741 mmHg 96%

17 May, Monday

Time Temperature Precipitation Wind Pressure Humidity
00:00 +13°C° 0 mm 1 mps 741 mmHg 96%
01:00 +13°C° 0 mm 1 mps 741 mmHg 96%
02:00 +12°C° 0 mm 2 mps 741 mmHg 96%
03:00 +12°C° 0 mm 2 mps 741 mmHg 96%
04:00 +12°C° 0 mm 2 mps 741 mmHg 97%
05:00 +12°C° 0 mm 2 mps 741 mmHg 97%
06:00 +12°C° 0.3 mm 2 mps 741 mmHg 96%
07:00 +12°C° 0.3 mm 2 mps 742 mmHg 95%
08:00 +12°C° 0.3 mm 3 mps 742 mmHg 95%
09:00 +13°C° 0.4 mm 2 mps 742 mmHg 90%
10:00 +14°C° 0.4 mm 2 mps 742 mmHg 85%
11:00 +15°C° 0.4 mm 2 mps 742 mmHg 80%
12:00 +16°C° 0 mm 2 mps 742 mmHg 71%
13:00 +18°C° 0 mm 2 mps 742 mmHg 63%
14:00 +19°C° 0 mm 2 mps 742 mmHg 55%
15:00 +19°C° 0.1 mm 3 mps 742 mmHg 59%
16:00 +19°C° 0.1 mm 3 mps 742 mmHg 63%
17:00 +18°C° 0.1 mm 3 mps 742 mmHg 66%
18:00 +17°C° 0.4 mm 3 mps 742 mmHg 73%
19:00 +14°C° 0.4 mm 3 mps 742 mmHg 79%
20:00 +13°C° 0.4 mm 4 mps 742 mmHg 86%
21:00 +12°C° 0 mm 4 mps 742 mmHg 88%
22:00 +12°C° 0 mm 3 mps 743 mmHg 90%
23:00 +11°C° 0 mm 3 mps 743 mmHg 92%

18 May, Tuesday

Time Temperature Precipitation Wind Pressure Humidity
00:00 +11°C° 0 mm 3 mps 743 mmHg 92%
01:00 +11°C° 0 mm 3 mps 743 mmHg 93%
02:00 +10°C° 0 mm 3 mps 743 mmHg 94%
03:00 +10°C° 0 mm 3 mps 743 mmHg 95%
04:00 +9°C° 0 mm 3 mps 743 mmHg 96%
05:00 +9°C° 0 mm 2 mps 743 mmHg 97%
06:00 +10°C° 0 mm 3 mps 743 mmHg 91%
07:00 +11°C° 0 mm 3 mps 743 mmHg 86%
08:00 +12°C° 0 mm 3 mps 744 mmHg 81%
09:00 +13°C° 0 mm 3 mps 744 mmHg 74%
10:00 +14°C° 0 mm 3 mps 744 mmHg 68%
11:00 +16°C° 0 mm 3 mps 744 mmHg 62%
12:00 +17°C° 0 mm 4 mps 744 mmHg 61%
13:00 +17°C° 0 mm 4 mps 744 mmHg 59%
14:00 +17°C° 0 mm 4 mps 744 mmHg 58%
15:00 +15°C° 0 mm 4 mps 744 mmHg 62%
16:00 +15°C° 0 mm 4 mps 744 mmHg 65%
17:00 +14°C° 0 mm 4 mps 744 mmHg 69%
18:00 +14°C° 0 mm 3 mps 744 mmHg 71%
19:00 +13°C° 0 mm 3 mps 744 mmHg 74%
20:00 +13°C° 0 mm 2 mps 744 mmHg 76%
21:00 +12°C° 0 mm 2 mps 745 mmHg 77%
22:00 +12°C° 0 mm 2 mps 745 mmHg 79%
23:00 +10°C° 0 mm 3 mps 745 mmHg 80%

19 May, Wednesday

Time Temperature Precipitation Wind Pressure Humidity
00:00 +10°C° 0 mm 3 mps 745 mmHg 83%
01:00 +10°C° 0 mm 2 mps 745 mmHg 86%
02:00 +9°C° 0 mm 2 mps 745 mmHg 89%
03:00 +9°C° 0 mm 3 mps 745 mmHg 91%
04:00 +9°C° 0 mm 3 mps 745 mmHg 92%
05:00 +9°C° 0 mm 3 mps 745 mmHg 94%
06:00 +10°C° 0 mm 4 mps 745 mmHg 90%
07:00 +10°C° 0 mm 4 mps 745 mmHg 85%
08:00 +10°C° 0 mm 5 mps 745 mmHg 81%
09:00 +12°C° 0 mm 5 mps 745 mmHg 75%
10:00 +13°C° 0 mm 6 mps 744 mmHg 70%
11:00 +14°C° 0 mm 6 mps 744 mmHg 64%
12:00 +14°C° 0.3 mm 6 mps 744 mmHg 66%
13:00 +14°C° 0.3 mm 5 mps 744 mmHg 68%
14:00 +14°C° 0.3 mm 5 mps 744 mmHg 70%
15:00 +14°C° 0.5 mm 5 mps 744 mmHg 72%
16:00 +14°C° 0.5 mm 5 mps 744 mmHg 75%
17:00 +14°C° 0.5 mm 5 mps 744 mmHg 77%
18:00 +13°C° 0.2 mm 4 mps 744 mmHg 80%
19:00 +12°C° 0.2 mm 4 mps 744 mmHg 83%
20:00 +11°C° 0.2 mm 3 mps 744 mmHg 86%
21:00 +10°C° 0 mm 3 mps 744 mmHg 88%
22:00 +9°C° 0 mm 3 mps 744 mmHg 89%
23:00 +8°C° 0 mm 3 mps 744 mmHg 90%
Show more

We Need Your Consent

Meteoprog and our Service Providers may store and access personal data such as cookies, device identifiers or other similar technologies on your device and process such data to personalise content and ads, as well as provide social media features and to analyse the traffic.

  • Store and/or access information on your device

    Cookies, device identifiers or other information can be stored or accessed on your device for the purposes indicated above.

  • Personalised ads and content, ad and content measurement, audience insights, and products development

    Ads and content can be personalised based on a profile. More data can be added to better personalise ads and content. Ad and content performance can be measured. Insights about the audience who saw the ads and content can be derived. Such data can be used to develop or improve user’s experience, systems and software.

By clicking ‘I Agree’ you will allow the use of indicated cookies, device identifiers, web beacons or other similar technologies. Your settings can be changed in the browser on your device.

For certain purposes, legitimate interests may be relied on, rather than consent. You can read more about this in our Privacy and Cookie Policy.